Other Public Products
Issued by NWS Grand Forks, ND

Home | Current Version | Previous Version | Text Only | Print | Product List | Glossary Off
Versions: 1 2 3 4 5 6 7 8 9 10 11 12 13 14 15 16 17 18 19 20 21 22 23 24 25 26 27 28 29 30 31 32 33 34 35 36 37 38 39 40 41 42 43 44 45 46 47 48 49 50

000
FPUS83 KFGF 290431
OPUFGF
PRAIRIE TO PINES WEATHER ROUNDUP
NATIONAL WEATHER SERVICE EASTERN NORTH DAKOTA/GRAND FORKS ND
1100 PM CDT SUN MAY 28 2017

 **SATELLITE DATA USED TO AUGMENT SKY COVER AT AUTOMATED STATIONS**
 *****  WEATHER ACROSS EASTERN NORTH DAKOTA  *****

CITY           SKY/WX    TMP DP  RH WIND       PRES   REMARKS
GRAND FORKS    CLOUDY    53  50  89 NW17      29.79R
GRAND FORKS AF CLOUDY    52  49  89 N13       29.80S
GRAND CITY NWS NOT AVBL
BUXTON           N/A     52  51  96 NW17        N/A
DEVILS LAKE    CLOUDY    53  46  77 NW13      29.86R
FARGO          CLOUDY    54  48  80 NW14      29.80R
WAHPETON ARPT  CLOUDY    52  46  82 W6        29.81S
$$

 *****  WEATHER ACROSS CENTRAL AND WESTERN NORTH DAKOTA  *****

CITY           SKY/WX    TMP DP  RH WIND       PRES   REMARKS
JAMESTOWN      CLOUDY    52  48  86 NW9       29.86R
BISMARCK       FAIR      56  40  55 NW12      29.96R
MINOT          MOCLDY    55  42  61 NW20G28   29.95R
MINOT AFB      CLOUDY    54  43  66 NW18      29.94R
GARRISON         N/A     49  40  71 NW12      29.97R
WILLISTON      FAIR      54  39  57 N9        30.06R
DICKINSON      FAIR      50  35  56 N7        30.03R
HETTINGER      FAIR      53  36  52 N14       30.05R
$$

 *****  OTHER OBSERVATIONS NORTHEAST NORTH DAKOTA  *****

CITY           SKY/WX    TMP DP  RH WIND       PRES   REMARKS
WALHALLA       NOT AVBL
LANGDON        CLOUDY    48  48 100 NW16      29.83S
CAVALIER       CLOUDY    50  48  93 NW14G21   29.80R
GRAFTON        CLOUDY    52  50  93 NW16G22   29.81S
CANDO          NOT AVBL
FORT TOTTEN      N/A     53  47  81 NW5       29.95S
ROLLA          CLOUDY    50  48  93 NW12      29.88R
RUGBY          NOT AVBL
 ***** THE ABOVE OBSERVATIONS ARE NON NWS ARE NOT QUALITY
        CONTROLLED AND MAY MIS-REPORT RAIN FOR SNOW...
$$

 *****  OTHER OBSERVATIONS SOUTHEAST NORTH DAKOTA *****

CITY           SKY/WX    TMP DP  RH WIND       PRES   REMARKS
COOPERSTOWN    CLOUDY    54  48  82 NW10      29.84S
VALLEY CITY    CLOUDY    52  52 100 NW9G16    29.86S
OAKES          NOT AVBL
GWINNER        CLOUDY    54  46  76 MISG      29.85F
SHEYENNE NWR     N/A     56  45  67 NW8       29.95S
BUFFALO          N/A     54  44  67 CALM        N/A
WYNDMERE         N/A     55  46  71 NW13        N/A
 ***** THE ABOVE OBSERVATIONS ARE NON NWS ARE NOT QUALITY
       CONTROLLED AND MAY MIS-REPORT RAIN FOR SNOW...
$$

  *****  WEATHER ACROSS NORTHERN MINNESOTA  *****

CITY           SKY/WX    TMP DP  RH WIND       PRES   REMARKS
FLAG ISLAND    FAIR      52  46  82 NW18      29.68S
WARROAD        CLOUDY    52  46  82 NW15      29.72R
ROSEAU         CLOUDY    52  46  82 NW10      29.73R
HALLOCK        CLOUDY    54  48  82 NW13G18   29.77R
THF RVR FALLS  CLOUDY    50  48  93 NW13      29.76S
HALSTAD          N/A     52  46  80 N12         N/A
FOSSTON        CLOUDY    48  46  93 NW10      29.75S
BAUDETTE       CLOUDY    53  47  79 NW13      29.68R
WASKISH        CLOUDY    54  50  87 NW10G17   29.69S
CROOKSTON      CLOUDY    52  48  87 NW14      29.78S
$$
  *****  WEATHER ACROSS CENTRAL AND WEST MINNESOTA  *****

CITY           SKY/WX    TMP DP  RH WIND       PRES   REMARKS
BEMIDJI        CLOUDY    50  48  92 NW12      29.71S
PARK RAPIDS    CLOUDY    52  46  80 NW14      29.72R
WADENA         CLOUDY    52  46  82 NW14      29.75S
DETROIT LAKES  CLOUDY    52  46  82 NW14      29.78S
MOORHEAD       CLOUDY    54  48  82 NW14      29.81R
FERGUS FALLS   CLOUDY    54  48  82 NW10      29.79S
ELBOW LAKE     CLOUDY    53  48  84 W15       29.81S
MORRIS MN      FAIR      52  46  82 NW10      29.80F
STAPLES        CLOUDY    52  48  87 W10       29.73S
WHEATON        CLOUDY    54  45  71 W8        29.84S
$$
  *****  WEATHER ELSEWHERE ACROSS MINNESOTA  *****

CITY           SKY/WX    TMP DP  RH WIND       PRES   REMARKS
DULUTH         LGT RAIN  52  49  89 NW8       29.64F
INTRNTL FALLS  CLOUDY    54  49  83 NW8       29.63F
ELY            CLOUDY    50  48  93 W6        29.61S
CLOQUET        CLOUDY    52  46  82 W8        29.65F
BRAINERD       CLOUDY    53  48  83 W8        29.71R
HIBBING        CLOUDY    50  50 100 SW5       29.64S
ALEXANDRIA     MOCLDY    53  47  79 NW15G24   29.78R
SAINT CLOUD    CLOUDY    53  50  89 SW8       29.73F
MINNEAPOLIS    FAIR      56  50  80 SW6       29.75R
$$

  *****  WEATHER ACROSS SOUTH DAKOTA  *****

CITY           SKY/WX    TMP DP  RH WIND       PRES   REMARKS
SIOUX FALLS    FAIR      53  49  86 CALM      29.88S
BROOKINGS      CLOUDY    54  48  80 NW8       29.89R
WATERTOWN      FAIR      52  44  74 NW8       29.87S
HURON          FAIR      55  48  77 N7        29.91R
SISSETON         N/A     55  45  68 NW15      29.83S
ABERDEEN       MOCLDY    52  43  71 NW9       29.91R
MITCHELL       FAIR      59  46  62 N5        29.92R
PIERRE         FAIR      57  36  45 N9        29.95R
MOBRIDGE       FAIR      59  37  44 N15G23    29.94R
RAPID CITY     FAIR      53  42  66 NW9       30.07R
$$

  *****  SOME WEATHER IN NEARBY STATES *****

CITY           SKY/WX    TMP DP  RH WIND       PRES   REMARKS
GLASGOW MT     FAIR      57  26  30 N12       30.13R
GREAT FALLS MT FAIR      53  47  79 SW3       30.24R
CHEYENNE WY    FAIR      53  39  59 N22G29    30.29R
SCOTTSBLUFF NE MOCLDY    54  46  74 CALM      30.19R
OMAHA NE       FAIR      62  46  55 E3        29.89S
DES MOINES IA  FAIR      65  43  44 CALM      29.85S
DAVENPORT IA   MOCLDY    65  52  62 W8        29.79R
CHICAGO IL     FAIR      65  48  54 SW3       29.76S
EAU CLAIRE WI  LGT RAIN  53  50  89 W14G21    29.71R
LA CROSSE WI   FAIR      60  49  66 CALM      29.72S
$$

  *****  SOME NATIONAL WEATHER *****

CITY           SKY/WX    TMP DP  RH WIND       PRES   REMARKS
LA GUARDIA NY  CLOUDY    62  51  67 E12       29.91F
RALEIGH NC     MOCLDY    72  68  87 SW5       29.84F
ATLANTA GA     MOCLDY    73  64  73 SW7       29.96R
NEW ORLEANS LA FAIR      79  75  87 NW5       29.98R
OKLAHOMA CITY  FAIR      70  45  40 CALM      30.02R
ALBUQUERQUE NM MOCLDY    68  37  32 S22G30    30.18R
SALT LAKE CITY FAIR      66  45  46 N8        30.14R
LOS ANGELES CA FAIR      61  56  83 SW9       29.97R
BOISE ID       FAIR      74  39  28 N6        30.08R
SEATTLE WA     FAIR      70  51  51 W8        30.02R
$$

*** WEATHER ACROSS MANITOBA...SASKATCHEWAN AND ONTARIO ***
                ***ONTARIO***

CITY           SKY/WX    TMP DP  RH WIND       PRES   REMARKS
GERALDTON      CLOUDY    54  52  94 W2        29.57F
THUNDER BAY    LGT RAIN  50  50 100 NE2       29.59F FOG
SIOUX LOOKOUT  MOCLDY    48  48 100 CALM      29.59S
TORONTO        CLOUDY    61  55  82 SE8       29.67F
BIG TROUT LK   PTCLDY    57  50  77 N6        29.60F
PICKLE LAKE    NOT AVBL
DRYDEN         CLOUDY    52  50  93 W5        29.61S
KENORA         CLOUDY    52  46  82 NW12G22   29.67R
$$
                *** MANITOBA***

CITY           SKY/WX    TMP DP  RH WIND       PRES   REMARKS
BRANDON        CLOUDY    52  45  76 N21G26    29.89R
DAUPHIN        LGT RAIN  50  46  87 NW13G18   29.90S
ISLAND LAKE    NOT AVBL
PILOT MOUND      N/A     48  46  93 NW12        N/A
THE PAS        MOCLDY    50  43  76 NW15G22   29.91S
THOMPSON       DRIZZLE   37  36  93 N12G18    29.85R FOG
WINNIPEG       CLOUDY    50  48  93 NW12      29.78S
LYNN LAKE      CLOUDY    45  37  76 N17G32    30.00S
CHURCHILL      LGT RAIN  32  32 100 N14       29.88F FOG     WCI  22
GILLAM         DRIZZLE   36  36 100 N10       29.79S FOG
$$
                ***SASKATCHEWAN***

CITY           SKY/WX    TMP DP  RH WIND       PRES   REMARKS
ESTEVAN        PTCLDY    50  45  81 NW14      30.04R
KINDERSLEY     PTCLDY    52  34  50 N8        30.20R
LLOYDMINSTER   PTCLDY    54  34  47 N5        30.21R
PRINCE ALBERT  MOCLDY    52  41  66 NW10      30.13R
REGINA         PTCLDY    54  39  58 N14G21    30.08
YORKTON        LGT RAIN  48  46  93 N8        30.01R F



USA.gov is the U.S. government's official web portal to all federal, state and local government web resources and services.